Location: Oak Glen
(34.0495°N, 116.9470°E)
Time: 13:34:42
(UTC-08:00)

Vanguard 1 - Pass Details

Date: 17 June 2018
Orbit: 649 x 3834 km, 34.3° (Epoch: 15 November)

Event Time Altitude Azimuth Distance (km) Brightness Sun altitude
Rises 14:38:48 0° 219° (SW) 4,342 12.8 6.2°
Reaches altitude 10° 14:41:19 10° 213° (SSW) 3,674 12.5 6.7°
Maximum altitude 14:50:53 48° 142° (SE) 2,758 12.6 8.5°
Drops below altitude 10° 15:07:47 10° 76° (ENE) 6,296 17.1 11.8°
Sets 15:13:43 0° 72° (ENE) 7,654 16.7 12.9°
